Location: Borbetomagus
(49.6328°N, 8.3592°E)
Time: 21:27:43
(UTC+00:00)

Cosmos 1805 - Pass Details

Date: 19 May 2025
Orbit: 448 x 453 km, 82.5° (Epoch: 15 June)

Event Time Altitude Azimuth Distance (km) Brightness Sun altitude
Rises 20:44:58 0° 359° (N) 2,468 7.6 -12.1°
Reaches altitude 10° 20:47:17 10° 13° (NNE) 1,589 6.2 -12.3°
Maximum altitude 20:50:14 26° 72° (ENE) 931 4.3 -12.6°
Enters shadow 20:51:50 18° 113° (ESE) 1,157 4.5 -12.8°
